TimeMST,TemperatureF,Dew PointF,Humidity,Sea Level PressureIn,VisibilityMPH,Wind Direction,Wind SpeedMPH,Gust SpeedMPH,PrecipitationIn,Events,Conditions,WindDirDegrees,DateUTC
12:53 AM,19.9,12.0,71,30.35,10.0,SSW,6.9,-,N/A,,Mostly Cloudy,200,2013-11-06 07:53:00
1:53 AM,21.0,10.9,65,30.34,10.0,SW,13.8,-,N/A,,Mostly Cloudy,220,2013-11-06 08:53:00
2:53 AM,21.0,12.0,68,30.35,10.0,SSW,8.1,-,N/A,,Partly Cloudy,210,2013-11-06 09:53:00
3:53 AM,21.0,12.9,71,30.36,10.0,SW,8.1,-,N/A,,Mostly Cloudy,230,2013-11-06 10:53:00
4:53 AM,25.0,12.0,58,30.36,10.0,SW,12.7,-,N/A,,Mostly Cloudy,230,2013-11-06 11:53:00
5:53 AM,25.0,12.9,60,30.38,10.0,SW,11.5,-,N/A,,Mostly Cloudy,220,2013-11-06 12:53:00
6:53 AM,24.1,12.9,62,30.39,10.0,SW,15.0,-,N/A,,Clear,230,2013-11-06 13:53:00
7:53 AM,28.9,15.1,56,30.40,10.0,WSW,16.1,-,N/A,,Partly Cloudy,240,2013-11-06 14:53:00
8:53 AM,32.0,16.0,52,30.42,10.0,SW,19.6,-,N/A,,Mostly Cloudy,230,2013-11-06 15:53:00
9:53 AM,33.1,15.1,48,30.43,10.0,SW,20.7,27.6,N/A,,Overcast,230,2013-11-06 16:53:00
10:53 AM,37.0,18.0,46,30.40,10.0,SW,19.6,24.2,N/A,,Scattered Clouds,220,2013-11-06 17:53:00
11:53 AM,39.0,21.9,50,30.41,10.0,WSW,23.0,28.8,N/A,,Partly Cloudy,250,2013-11-06 18:53:00
12:53 PM,37.9,21.9,53,30.42,10.0,WSW,21.9,28.8,N/A,,Mostly Cloudy,240,2013-11-06 19:53:00
2:53 PM,39.0,23.0,53,30.42,10.0,West,20.7,25.3,N/A,,Clear,260,2013-11-06 21:53:00
3:53 PM,37.0,24.1,59,30.43,10.0,SW,16.1,-,N/A,,Mostly Cloudy,230,2013-11-06 22:53:00
4:53 PM,35.1,24.1,64,30.43,10.0,WSW,16.1,-,N/A,,Partly Cloudy,250,2013-11-06 23:53:00
5:53 PM,34.0,24.1,67,30.44,10.0,WSW,15.0,-,N/A,,Scattered Clouds,240,2013-11-07 00:53:00
6:53 PM,33.1,24.1,70,30.47,10.0,SW,8.1,-,N/A,,Overcast,230,2013-11-07 01:53:00
7:53 PM,32.0,24.1,73,30.45,10.0,SW,11.5,-,N/A,,Clear,220,2013-11-07 02:53:00
8:53 PM,30.9,24.1,76,30.44,10.0,SW,8.1,-,N/A,,Clear,230,2013-11-07 03:53:00
9:53 PM,32.0,24.1,73,30.45,10.0,SW,6.9,-,N/A,,Overcast,220,2013-11-07 04:53:00
10:53 PM,33.1,24.1,70,30.41,10.0,SW,12.7,-,N/A,,Mostly Cloudy,230,2013-11-07 05:53:00
11:53 PM,30.0,24.1,79,30.41,10.0,SW,10.4,-,N/A,,Clear,230,2013-11-07 06:53:00